Location: *
(47.6569°N, 7.4256°E)
Time: 05:43:37
(UTC+00:00)

H-2A R/B - Pass Details

Date: 14 December 2019
Orbit: 501 x 541 km, 97.3° (Epoch: 19 January)

Event Time Altitude Azimuth Distance (km) Brightness Sun altitude
Rises 17:12:35 0° 179° (S) 2,593 6.5 -15.0°
Reaches altitude 10° 17:14:43 10° 185° (S) 1,710 5.6 -15.3°
Maximum altitude 17:18:17 49° 261° (W) 661 3.7 -15.9°
Drops below altitude 10° 17:21:53 10° 337° (NNW) 1,721 5.4 -16.5°
Sets 17:24:02 0° 343° (NNW) 2,611 6.3 -16.8°
